Location: Fiddletown
(38.4917°N, 120.6633°W)
Time: 11:25:46
(UTC-07:00)

Envisat - Visible Passes

Search period start: 20 April 2014 00:00
Search period end: 30 April 2014 00:00
Orbit: 765 x 767 km, 98.4° (Epoch: 19 April)

Date Brightness Start Highest point End Pass type
(mag) Time Alt. Az. Time Alt. Az. Time Alt. Az.
20 Apr 3.1 22:19:25 65° NE 22:19:25 65° NE 22:23:58 10° N visible
20 Apr 5.7 23:59:37 11° WNW 23:59:37 11° WNW 00:00:22 10° WNW visible
21 Apr 3.9 21:42:23 31° ENE 21:42:36 31° ENE 21:47:01 10° N visible
21 Apr 4.7 23:22:35 26° WNW 23:22:35 26° WNW 23:25:55 10° NW visible
22 Apr 4.8 21:05:20 14° ENE 21:06:29 15° ENE 21:09:10 10° NNE visible
22 Apr 3.4 22:45:33 59° WNW 22:45:33 59° WNW 22:49:57 10° NNW visible
23 Apr 3.2 22:08:31 55° ENE 22:08:31 55° ENE 22:13:24 10° N visible
23 Apr 5.4 23:48:44 15° WNW 23:48:44 15° WNW 23:50:48 10° NW visible
24 Apr 4.2 21:31:29 24° E 21:32:11 25° ENE 21:36:15 10° NNE visible
24 Apr 4.3 23:11:42 34° W 23:11:42 34° W 23:15:38 10° NNW visible
25 Apr 5.0 20:54:29 10° E 20:56:07 12° ENE 20:57:45 10° NE visible
25 Apr 3.0 22:34:40 79° NW 22:34:40 79° NW 22:39:29 10° NNW visible
26 Apr 3.4 21:57:38 43° E 21:57:59 43° ENE 22:02:46 10° N visible
26 Apr 5.1 23:37:50 20° W 23:37:50 20° W 23:40:51 10° NW visible
27 Apr 4.5 21:20:36 19° E 21:21:46 20° ENE 21:25:25 10° NNE visible
27 Apr 3.8 23:00:49 45° W 23:00:49 45° W 23:05:18 10° NNW visible
28 Apr 2.8 22:23:47 78° E 22:23:53 78° ENE 22:28:58 10° N visible
29 Apr 5.7 00:03:59 10° W 00:03:59 10° W 00:04:25 10° WNW visible
29 Apr 3.7 21:46:45 33° E 21:47:32 35° ENE 21:52:06 10° N visible
29 Apr 4.7 23:26:57 25° W 23:26:57 25° W 23:30:44 10° NW visible
